ROMMA est une association bénévole à but non lucratif. Votre soutien est indispensable : ADHERER à ROMMA ou FAIRE un DON

Chambon - (38, Isère)

Oisans (2460 m)   Longitude: 06° 10' 42" E   Latitude: 45° 01' 32" N Station partenaire n°803
 

Détail journalier du     <<     >>

Température Humidité Vent Dir Rafale Dir. rafale Neige 1 Neige 2
Heure (°C) (%) (km/h) (km/h) (cm) (cm)
01:00 13.1763NE15ESE52
02:00 12.6753NE17SO33
03:00 13.2719S33SSO32
04:00 13.46814SSO39SSO12
05:00 13.17114SSO39SSO02
06:00 12.87411SSO35SSO12
07:00 11.28910SSO32SSO12
08:00 10.6969OSO24OSO03
09:00 13.67418SO46SO12
10:00 13.27823SO43SO02
11:00 13.77521OSO39OSO02
12:00 14.17522OSO39OSO02
13:00 14.67522SO43SO11
14:00 15.56821OSO42OSO12
15:00 15.17122OSO40OSO12
16:00 15.76822OSO40OSO02
17:00 15.08020OSO36O02
18:00 14.38522O35O12
19:00 12.69622O31O13
20:00 12.39521OSO30OSO12
21:00 11.59714OSO29OSO01
22:00 11.4879OSO31OSO02
23:00 11.4778SSO21OSO02
minuit 11.7729SSO25SSO01

Graphique du 10-08-2019

 

Serveur OMMA